Dewpoint
65 65 65 65 65 65 65 64 64 64 64 63 63 62 61 61 61 61 61 61 62 62 62 62 62 63 63 63 63 63 63 62 62 62 62 62 62 62 63 63 63 64 64 64 65 65 65 64 61 57 57 56 56 56 56 57 57 57 56 56 56 55 54 60 63 65 65 65 65 64 64 63 63 63 62 62 63 63 64 64 65 65 65 65 64 64 64 64 64 64 63 63 63 63 63 63 63 64 64 64 64 64 64
65 65 65 65 65 65 65 65 65 64 64 64 63 63 62 62 62 62 62 62 62 62 62 63 63 63 63 63 63 63 63 62 62 62 62 62 62 62 62 62 63 63 64 64 65 65 66 64 61 57 57 56 56 56 56 56 57 57 56 55 55 55 55 61 64 65 65 65 65 64 64 63 63 63 63 63 63 63 63 64 64 65 65 65 65 65 65 65 65 64 64 64 63 63 63 63 63 63 64 64 64 64 64
66 66 65 65 65 65 65 65 65 65 64 64 63 63 63 63 62 62 62 62 62 63 63 63 63 63 64 63 63 63 63 63 63 63 63 63 63 63 62 62 62 63 63 64 65 66 67 65 61 57 57 57 56 56 56 56 56 56 56 56 56 56 57 62 65 65 65 65 65 64 64 63 63 63 63 63 63 63 63 63 64 64 65 65 65 65 65 65 65 65 65 64 64 64 63 63 63 63 63 64 64 64 65
67 66 66 65 65 65 65 65 65 65 64 64 64 63 63 63 63 63 63 63 63 63 63 63 64 64 64 64 63 63 63 63 63 63 63 63 63 63 63 63 63 63 64 65 66 67 65 64 62 59 57 57 56 56 56 57 57 56 56 56 57 57 61 64 65 65 65 65 65 64 64 64 63 63 63 63 63 64 63 63 63 64 64 64 65 65 65 65 65 65 65 64 64 64 64 64 63 63 63 63 64 64 65
67 67 66 66 66 66 65 65 65 65 65 64 64 64 64 63 63 63 63 63 63 63 63 63 63 63 63 63 63 63 63 63 63 63 63 63 63 63 63 63 63 64 64 65 66 66 64 63 62 60 57 57 57 56 56 58 58 58 57 57 58 59 63 65 65 65 65 65 65 65 64 64 64 63 63 63 64 64 64 64 64 64 64 64 64 64 65 64 64 64 64 64 64 64 64 64 64 64 64 63 64 64 64
67 66 66 66 66 66 65 65 65 65 65 65 65 64 64 64 64 64 64 63 63 63 63 63 63 62 62 63 63 63 63 63 63 63 63 63 63 64 64 64 64 64 65 66 66 66 64 61 60 58 57 57 57 57 57 58 58 58 58 58 59 61 64 65 65 66 66 66 65 65 65 64 64 64 64 64 64 64 64 64 64 64 64 64 64 64 64 64 64 64 64 64 64 64 64 64 64 64 64 64 64 64 64
66 66 66 66 66 66 66 66 65 65 65 65 65 65 64 64 64 64 64 64 63 63 63 63 63 63 63 63 64 64 64 64 64 63 63 64 64 64 64 64 64 65 65 66 66 66 64 61 59 58 58 58 58 58 58 59 59 59 59 58 61 64 65 65 65 66 66 66 66 65 65 65 64 64 64 64 64 64 64 64 64 64 64 64 64 64 64 64 64 64 64 64 64 64 64 64 64 64 64 64 64 64 64
66 66 66 66 66 66 66 66 66 66 65 65 65 65 65 65 64 64 64 64 64 64 64 64 64 64 64 64 64 64 64 64 64 64 64 64 64 64 65 65 65 65 66 66 66 66 65 63 61 60 59 58 58 58 58 58 59 59 58 59 61 64 65 65 66 66 66 66 66 66 66 65 65 65 64 64 64 64 64 64 64 64 64 64 64 64 64 64 64 64 64 64 64 64 64 64 64 64 64 64 64 64 64
66 66 66 66 66 66 66 66 66 66 66 65 65 65 65 65 64 64 64 64 64 64 64 64 64 64 65 65 65 65 65 65 65 65 65 65 65 65 65 65 65 66 66 67 67 66 66 64 62 61 60 59 59 60 60 60 60 60 60 60 61 63 65 65 66 66 66 67 67 67 66 66 65 65 65 65 65 65 65 64 64 64 64 64 64 64 64 64 64 64 64 64 64 64 64 64 64 63 63 64 64 64 64
65 65 66 66 66 66 67 67 67 66 66 66 65 65 65 65 65 64 64 64 64 64 64 64 64 65 65 65 65 65 65 65 65 65 65 65 65 65 65 65 66 66 67 67 67 66 67 65 62 61 60 60 60 60 61 61 61 61 61 61 63 64 65 65 66 66 67 67 67 67 67 67 66 66 65 65 65 65 65 65 65 64 64 64 64 64 64 64 64 65 65 65 65 65 64 64 64 64 64 64 64 64 64
65 65 66 66 66 66 66 66 66 66 66 66 65 65 65 65 65 65 64 64 64 64 65 65 65 65 65 65 65 65 65 65 65 65 66 66 66 66 66 66 66 67 67 67 66 66 66 65 63 61 61 60 61 61 61 61 61 61 61 62 64 65 65 65 66 66 67 67 67 67 67 67 66 66 66 66 65 65 65 65 65 65 65 64 64 64 64 64 64 65 65 65 65 65 65 65 65 64 64 64 64 64 64
66 66 66 66 66 66 66 66 66 66 66 66 65 65 65 65 65 65 65 65 65 65 65 65 65 65 65 65 66 66 66 66 66 66 66 66 66 66 66 66 67 67 67 66 66 66 65 64 62 61 61 60 60 61 61 61 61 60 61 63 64 65 65 65 66 66 67 67 67 67 66 66 66 66 66 66 66 66 66 65 65 65 65 65 65 65 65 65 65 65 65 65 65 65 65 65 65 65 65 65 64 64 64
67 67 67 67 67 66 66 66 66 66 66 65 65 65 65 65 65 65 65 65 65 65 65 65 66 66 66 66 66 66 66 67 67 67 67 66 66 66 66 67 67 67 67 66 66 65 63 62 61 61 60 61 60 60 61 61 60 61 61 63 64 65 65 65 66 66 66 66 66 66 66 66 66 66 66 66 66 66 66 66 66 65 65 65 65 65 65 65 65 65 65 65 65 65 65 66 66 66 66 65 65 65 65
68 67 67 67 67 67 66 66 66 66 65 65 65 65 65 65 65 65 65 65 66 66 66 66 66 66 66 66 67 67 67 67 67 67 67 67 67 67 67 67 67 67 66 66 65 64 63 62 61 61 60 61 60 61 62 61 61 61 62 64 65 65 65 65 65 66 66 66 66 66 66 66 66 66 66 66 66 66 66 66 65 65 65 65 65 65 66 66 66 66 66 66 66 66 66 66 66 67 67 67 66 66 65
67 67 66 66 67 67 66 66 66 66 65 65 66 66 66 66 66 66 66 66 66 66 66 66 66 66 66 67 67 67 67 67 67 67 67 67 67 67 67 67 67 66 66 65 64 62 61 61 61 61 61 61 61 61 61 61 61 61 63 64 65 65 65 65 65 65 65 65 65 65 65 65 65 65 65 65 65 65 65 65 65 65 65 66 66 66 66 66 67 67 67 67 67 66 66 67 67 67 67 67 67 67 66
64 65 65 66 66 66 66 66 66 66 66 66 66 66 66 66 66 66 66 66 66 66 66 66 66 66 67 67 67 68 67 67 67 67 66 66 66 66 66 66 66 66 65 63 62 61 61 60 60 60 61 61 61 61 61 61 61 62 64 64 65 65 65 65 65 65 65 65 65 65 65 65 65 65 65 65 65 65 65 65 65 65 65 65 66 66 66 67 67 67 67 67 67 67 67 67 67 67 67 67 67 67 67
62 63 64 65 65 65 65 65 65 65 66 66 66 66 66 66 66 66 66 66 66 66 66 66 66 67 67 67 68 67 66 65 65 65 65 66 66 66 65 66 65 65 63 62 61 61 60 59 60 60 61 60 60 61 61 61 61 63 64 64 65 65 65 65 65 65 65 65 65 65 65 65 64 64 64 65 65 65 65 65 65 65 65 65 65 66 66 66 66 66 66 67 67 67 67 67 67 67 67 67 67 67 67
61 62 63 64 64 65 65 65 65 65 65 66 66 66 66 66 66 66 66 66 66 66 67 67 67 67 67 67 67 66 64 63 63 63 64 65 65 65 65 65 64 63 61 61 61 60 59 59 60 60 61 60 60 61 61 61 62 63 64 64 65 65 65 65 65 65 65 65 65 65 64 64 64 64 64 64 65 65 65 65 65 65 65 65 65 65 65 65 65 65 66 66 66 66 66 67 67 67 67 67 67 67 67
61 61 62 63 63 64 65 65 65 65 66 66 66 66 66 66 66 66 66 66 66 67 67 67 67 67 67 67 66 65 63 62 62 62 62 63 63 63 63 63 62 61 60 60 60 59 59 58 59 60 60 60 61 61 61 61 62 63 64 64 65 65 65 65 65 65 65 65 65 64 64 64 64 64 64 64 64 65 65 65 65 65 65 65 65 65 65 65 65 65 65 65 65 65 65 65 66 66 66 66 66 66 67
60 61 61 62 63 63 64 65 65 65 66 66 66 66 66 66 66 66 66 66 66 66 66 66 66 66 66 65 63 62 61 61 61 61 61 61 62 62 61 61 61 60 60 59 58 58 58 58 59 60 60 60 60 61 61 61 62 63 64 64 64 65 65 65 65 65 65 65 65 64 64 64 64 64 64 64 64 64 65 65 65 65 65 65 65 65 65 65 65 65 65 65 65 65 65 65 65 65 65 65 66 66 66
59 59 59 60 61 62 63 63 64 65 65 65 65 65 64 64 65 65 65 65 65 65 65 65 64 63 62 61 61 60 60 60 60 61 61 61 61 61 61 60 60 60 60 58 58 58 58 58 59 59 59 60 60 60 60 61 62 63 63 63 64 64 65 65 65 65 65 65 64 64 64 64 64 64 64 64 64 64 64 64 65 65 65 65 65 65 65 65 65 65 65 64 64 64 64 64 64 64 65 65 65 66 66
58 58 58 59 60 61 61 61 62 62 63 64 64 62 61 62 62 62 63 62 62 62 62 61 61 59 59 59 58 58 59 59 59 60 60 60 60 60 60 60 59 59 58 57 57 57 57 58 58 58 58 59 59 59 59 60 61 61 62 62 63 63 63 64 64 64 64 64 63 63 63 63 63 63 63 63 64 64 64 64 64 64 64 64 64 64 64 64 64 64 64 64 64 64 64 64 64 64 65 65 65 65 65
58 58 58 59 59 60 60 60 60 61 61 62 62 61 60 60 60 60 60 60 59 59 59 59 59 58 58 58 58 58 58 59 59 59 59 59 59 59 58 58 57 57 56 56 56 56 56 57 57 57 56 56 57 57 57 59 60 60 60 61 61 61 62 62 62 62 62 61 61 61 61 61 61 61 62 62 63 63 64 64 64 64 64 64 64 64 64 64 64 64 64 64 64 64 64 64 64 64 64 65 65 65 65
58 58 58 58 59 59 59 59 60 60 60 61 61 60 60 60 59 59 59 59 59 59 58 58 58 58 57 57 57 57 56 56 56 56 56 56 56 56 55 55 55 55 55 54 55 55 55 55 54 54 54 54 54 54 55 56 57 58 58 59 59 60 60 60 60 59 59 59 60 60 60 60 60 61 61 61 61 62 63 64 64 64 64 64 64 64 64 64 64 64 64 64 64 64 64 64 64 64 64 64 65 65 65
58 58 58 58 58 58 59 59 59 59 59 60 60 60 60 59 59 59 59 60 60 59 59 58 58 57 56 56 54 53 52 51 51 52 54 54 53 52 52 52 52 52 52 52 52 52 52 52 51 51 50 51 51 51 52 54 56 56 56 56 57 57 58 58 58 58 58 58 58 59 59 59 59 60 60 61 61 61 62 63 63 63 63 63 63 64 64 64 64 64 64 64 64 65 65 65 65 65 65 65 65 65 65
58 58 58 58 59 59 59 59 59 59 59 59 59 59 59 59 60 60 60 59 59 59 58 57 56 55 55 51 48 47 47 47 48 49 52 52 51 50 48 47 47 48 49 49 49 49 49 49 48 48 48 48 47 47 48 52 54 55 55 55 56 56 56 56 56 57 57 57 58 58 58 59 59 59 60 60 61 61 61 62 62 63 63 63 63 64 64 64 64 64 65 65 65 65 65 65 65 65 65 65 65 65 65
59 59 59 60 60 60 59 59 59 59 59 60 60 60 59 60 59 59 58 58 57 56 55 53 52 51 50 46 44 44 44 45 46 47 48 48 48 47 45 44 44 45 46 46 46 46 46 46 46 46 46 45 45 44 44 49 52 53 54 55 55 55 55 55 56 56 56 57 57 58 58 58 58 59 60 60 61 61 61 61 62 62 63 63 64 64 64 65 65 65 65 65 65 65 65 65 65 65 65 65 65 65 65
59 60 60 60 60 60 60 60 59 59 60 60 60 60 59 58 57 56 55 54 53 52 50 49 47 47 45 43 43 43 43 44 44 44 45 44 43 43 42 41 41 42 43 43 43 43 43 43 43 43 43 42 42 41 40 45 49 52 53 54 54 54 54 54 54 55 56 56 56 57 57 57 57 58 59 60 60 61 61 61 61 62 62 63 64 64 64 64 64 64 64 64 64 64 64 64 64 65 65 65 65 65 65
60 60 60 59 59 58 57 56 56 56 56 57 57 56 56 55 53 52 50 49 49 48 47 46 45 43 43 41 41 41 42 42 41 41 41 40 40 40 40 38 38 39 39 40 40 40 40 40 40 40 39 39 39 38 38 42 46 51 52 53 53 53 53 53 53 53 54 55 56 56 56 56 56 57 57 58 59 60 60 60 60 61 61 61 62 61 61 61 61 61 61 61 61 62 62 62 63 64 65 64 64 64 65
59 58 57 56 55 54 53 52 51 51 52 52 51 50 50 51 50 49 47 47 46 45 45 43 43 42 41 40 40 40 41 41 39 38 38 37 37 37 38 37 36 37 37 38 38 38 38 38 38 38 37 37 37 37 37 38 43 48 51 52 52 52 52 52 52 52 52 54 54 55 55 55 55 56 56 56 57 57 58 58 58 58 59 59 59 58 58 58 57 57 57 57 58 59 59 60 61 62 63 62 62 63 63
56 54 52 51 50 49 49 49 48 48 48 47 47 47 47 48 47 46 45 43 42 42 41 40 40 39 39 39 38 39 39 39 38 36 35 35 34 35 36 35 35 35 35 36 36 36 37 37 36 36 36 35 35 35 36 37 40 45 51 51 51 51 51 50 50 50 51 52 53 53 53 54 54 54 54 55 55 55 56 56 56 56 56 56 56 56 56 55 55 55 55 55 55 55 56 56 57 57 58 59 59 60 60
52 50 48 47 47 47 47 47 46 45 46 46 45 44 45 44 44 43 43 42 41 40 39 39 38 38 38 38 37 37 37 37 35 34 34 33 33 34 35 35 34 34 35 35 35 35 36 35 35 34 34 34 34 34 35 35 36 38 45 49 50 50 50 49 49 49 50 51 51 52 52 52 52 53 53 53 53 53 54 54 54 54 54 54 54 54 54 54 54 54 54 54 54 54 54 54 55 55 55 56 56 56 56
48 47 46 45 45 45 45 44 44 44 44 43 43 43 43 42 42 42 41 41 40 40 39 38 38 38 37 37 36 36 35 34 34 33 32 32 32 33 33 33 34 34 34 34 34 34 34 34 34 33 32 32 32 33 34 34 34 34 38 43 47 48 48 48 48 48 48 49 50 50 51 51 51 52 52 52 52 52 52 52 52 53 53 53 53 53 53 53 53 53 53 53 53 53 53 53 53 54 54 54 54 54 54
46 45 44 43 43 43 43 43 43 43 43 42 42 41 41 40 40 40 39 38 38 37 37 37 38 37 36 35 34 34 34 33 33 33 32 31 32 32 33 33 33 34 34 34 34 34 34 33 32 31 31 31 31 32 33 33 32 32 33 38 43 45 47 47 47 47 47 48 48 49 49 49 50 50 50 51 51 51 51 51 51 52 52 52 52 52 52 52 52 52 52 52 52 52 52 52 52 52 52 53 53 53 53
44 43 43 42 42 42 42 42 42 42 42 41 41 40 39 39 38 38 37 35 35 34 35 36 36 36 35 34 33 32 32 32 32 32 31 31 32 32 32 32 33 33 32 32 32 32 32 31 31 30 30 30 31 32 33 32 31 30 31 37 40 43 45 45 45 45 46 47 47 47 47 47 48 48 49 49 49 49 49 49 50 50 51 51 51 51 51 51 51 51 51 51 51 52 52 52 52 52 51 52 52 52 52
43 42 42 41 41 42 42 42 42 41 41 40 39 38 38 37 36 36 35 34 34 34 34 35 35 35 34 32 32 32 32 32 32 32 31 31 31 31 32 32 32 32 31 30 31 31 30 30 30 30 30 30 31 32 32 32 30 29 29 31 34 37 40 42 42 43 44 45 45 45 45 46 46 47 47 47 47 48 48 48 48 49 49 49 50 50 50 50 50 50 50 50 50 50 50 50 50 50 50 50 50 50 51
42 41 41 40 40 40 40 41 41 40 39 38 38 36 35 35 35 34 34 33 33 33 34 34 34 35 34 33 32 32 33 32 32 31 31 31 31 31 30 30 30 30 29 30 30 30 30 29 29 30 30 30 31 32 32 30 29 28 28 28 30 32 34 35 37 39 42 43 44 44 44 44 44 44 45 46 46 46 46 47 47 47 47 48 48 48 49 49 49 49 49 49 49 49 49 49 49 49 49 49 49 49 49
41 40 40 39 39 39 39 39 40 39 38 37 36 35 34 34 34 34 33 33 33 33 33 33 34 34 34 33 32 33 33 32 31 31 31 30 30 30 29 29 29 29 29 29 30 30 30 30 30 30 30 31 31 31 31 29 27 27 27 27 28 30 31 33 33 34 37 40 42 43 42 42 43 43 43 43 44 44 44 45 45 46 46 47 47 47 47 47 48 48 48 48 48 48 48 48 48 48 48 48 48 49 49
40 39 39 39 38 38 39 39 39 38 36 35 34 33 33 32 32 32 32 32 33 33 33 32 32 32 33 32 32 32 34 32 31 31 31 30 29 29 29 29 29 29 29 29 30 30 30 30 30 30 31 31 31 31 29 27 26 26 26 27 27 29 31 32 32 32 32 35 38 40 41 41 41 41 42 42 42 42 43 43 43 44 44 45 46 46 47 47 47 47 47 47 47 47 47 47 47 47 47 48 48 48 48
39 38 38 38 38 38 38 38 38 36 35 34 33 32 31 31 31 31 32 32 32 33 33 32 31 31 31 32 32 31 32 32 32 31 31 30 29 29 28 29 29 28 29 29 29 29 30 30 30 31 31 32 31 29 27 25 25 25 25 26 27 29 32 33 33 32 29 30 33 36 39 39 39 39 40 40 40 40 40 41 41 42 43 43 44 45 45 46 46 46 46 47 47 47 47 47 47 47 47 47 47 48 48
38 38 37 37 37 37 37 37 36 35 33 32 32 31 30 30 30 31 31 31 31 32 34 33 32 31 30 31 31 31 31 32 32 31 31 30 29 29 28 28 28 27 27 29 29 29 29 30 31 32 33 32 30 28 25 24 24 24 25 25 26 29 33 34 33 31 28 29 29 31 35 38 38 38 38 38 38 38 38 38 39 40 41 42 43 43 44 45 45 45 46 46 46 47 47 47 47 47 47 47 47 47 47
37 37 37 36 36 37 36 36 35 34 32 31 30 30 29 30 30 30 31 30 30 31 33 33 33 31 30 30 31 31 31 31 32 32 31 31 30 29 28 27 27 26 26 28 28 28 29 30 32 33 34 32 29 25 23 22 22 23 23 24 25 28 32 32 30 27 26 27 27 28 30 35 37 37 37 37 37 37 37 37 38 38 39 41 42 43 43 44 44 45 45 45 46 46 46 47 47 47 47 47 47 47 47
36 36 36 35 36 36 36 35 34 33 31 30 29 29 28 29 29 30 30 31 30 30 31 32 33 32 31 30 30 31 31 31 31 32 32 31 30 29 28 27 26 25 25 26 27 27 29 30 33 35 36 30 26 23 21 20 20 21 22 23 25 27 28 27 26 25 25 26 26 25 26 30 34 36 36 36 35 35 35 36 36 37 38 39 41 42 42 43 43 44 44 45 45 46 46 46 46 46 46 46 46 46 46
36 35 35 35 35 35 35 34 33 32 31 29 28 27 27 27 28 28 29 30 31 30 30 31 32 32 32 30 30 30 31 31 31 32 32 31 30 29 28 27 26 25 25 25 26 27 28 30 34 34 32 28 24 21 18 19 20 20 21 23 25 25 25 25 25 25 25 25 25 24 24 25 28 31 34 34 35 35 35 35 35 36 37 38 39 40 41 42 43 43 43 44 45 45 46 46 46 46 46 46 46 45 45
34 34 34 34 34 34 34 33 32 31 30 29 27 26 26 26 26 27 28 29 30 30 29 29 30 31 33 31 30 30 31 31 32 33 33 31 30 29 28 27 26 25 24 24 25 26 28 32 32 30 26 25 22 20 17 20 21 21 20 21 23 24 24 24 24 24 23 24 24 24 25 24 23 24 26 29 30 31 33 34 34 35 36 37 38 39 40 40 41 42 42 43 44 44 45 45 45 45 45 45 45 45 44
33 33 33 33 33 33 33 32 31 30 29 28 27 25 25 25 25 26 26 27 29 30 30 29 29 30 32 32 31 30 30 31 33 34 34 32 29 29 29 28 26 25 24 24 24 25 28 31 29 26 23 23 21 19 17 22 23 21 19 20 22 23 22 23 22 22 21 22 22 23 25 23 20 19 20 21 22 23 26 30 33 34 35 36 37 38 38 39 39 40 41 42 43 43 44 44 44 44 44 44 44 44 44
32 32 32 32 32 32 32 31 30 30 29 27 26 25 24 25 25 25 25 26 27 29 31 30 29 28 29 31 30 29 29 31 32 33 33 31 29 28 30 28 26 25 23 23 23 24 28 28 26 23 20 20 18 17 16 20 20 20 19 21 22 22 20 21 21 20 20 21 21 21 20 20 18 17 18 18 18 19 21 25 29 32 34 34 35 36 37 37 38 38 39 41 42 43 43 44 44 43 43 43 43 43 43
32 31 31 31 31 31 31 30 30 29 28 27 26 25 25 25 25 25 25 26 26 28 31 33 30 27 26 27 27 28 29 30 31 33 32 29 27 25 26 26 25 23 22 23 22 24 29 26 23 20 18 16 16 15 15 17 19 20 20 22 22 20 19 20 20 20 20 20 19 19 18 17 17 16 16 17 17 17 18 20 24 29 32 34 34 35 35 36 36 37 38 39 41 42 43 43 43 43 43 43 43 43 43
32 31 30 30 30 30 30 30 29 29 28 27 26 26 26 26 26 26 27 26 26 27 28 32 32 30 25 25 26 27 28 29 31 32 31 26 22 20 21 22 21 20 21 21 21 23 29 25 21 18 16 15 14 14 14 16 17 19 21 22 21 20 19 20 20 20 19 18 17 17 17 17 16 16 16 16 17 17 17 18 20 23 28 31 33 34 34 34 35 36 37 38 39 41 41 42 42 42 42 43 43 43 43
30 29 29 29 29 29 29 30 29 29 28 27 26 26 27 28 27 27 26 25 25 25 27 29 30 31 28 26 26 26 28 30 31 31 28 24 21 18 17 17 17 18 18 19 20 21 26 23 19 15 13 14 13 14 15 16 17 19 22 22 20 19 19 19 19 19 18 17 16 16 16 16 16 16 16 16 17 16 17 18 19 20 23 25 28 30 32 34 34 35 36 37 38 39 39 40 41 41 42 43 43 43 43
29 29 29 29 29 29 29 30 29 29 29 29 27 26 26 26 26 25 22 22 23 25 26 26 27 29 30 28 27 28 28 30 31 30 26 24 22 20 19 17 16 14 12 12 16 21 24 20 16 13 12 13 13 14 15 17 19 20 21 21 20 19 19 19 19 19 17 16 16 16 16 16 16 16 16 16 16 17 17 17 18 19 20 20 21 23 25 27 31 34 35 36 36 37 37 38 39 40 41 42 43 43 44
29 29 28 28 28 29 29 29 29 29 29 26 24 22 22 21 22 22 22 22 23 25 26 26 25 26 28 29 29 28 29 30 31 31 29 25 23 23 24 20 14 9 7 8 12 16 20 16 15 14 11 11 12 13 15 18 20 20 21 20 19 19 19 20 19 18 17 16 16 15 16 16 16 16 16 16 17 17 17 18 18 18 19 19 20 22 24 26 30 33 34 34 35 35 35 36 38 39 41 42 43 43 44
28 28 28 28 28 28 29 28 28 27 26 24 23 22 22 22 22 22 22 22 23 24 26 27 26 25 25 25 25 26 29 29 30 31 32 27 23 20 21 16 11 8 9 7 7 8 11 10 11 12 12 11 12 14 17 19 19 19 20 19 19 20 20 19 19 18 17 16 15 15 16 16 16 16 16 17 17 18 18 18 18 18 19 19 20 21 22 25 29 33 33 33 34 34 34 34 36 38 39 41 43 43 44
27 27 27 27 27 28 28 27 27 26 26 25 23 22 21 21 21 21 22 22 22 23 25 28 27 25 24 23 23 24 25 28 29 29 32 29 24 19 16 14 12 12 13 10 6 3 4 7 9 10 11 14 16 17 18 17 17 17 18 20 20 20 18 18 18 17 16 16 16 16 15 16 16 17 17 17 17 18 18 18 18 19 19 19 20 20 20 24 29 32 32 32 32 32 33 34 35 36 38 40 42 43 44
26 26 27 27 27 27 27 26 26 26 26 25 24 23 21 21 21 21 22 22 22 23 22 25 25 25 24 23 23 24 24 26 27 28 30 30 26 21 17 17 17 16 13 10 7 4 5 8 10 10 10 14 15 14 15 15 16 17 21 24 22 19 16 16 17 17 16 16 16 16 16 16 16 17 17 17 17 18 18 19 19 19 19 19 20 21 23 26 28 28 27 28 30 32 32 34 35 36 38 39 41 42 43
25 25 26 26 26 26 26 26 26 26 26 25 25 23 22 22 21 21 22 23 23 23 22 23 24 25 26 25 24 24 24 23 24 26 29 30 29 27 21 18 15 11 7 6 7 8 9 11 11 9 8 12 12 11 12 15 15 16 20 21 18 16 16 17 17 16 16 16 16 16 16 17 18 17 17 17 17 18 19 19 19 18 18 18 19 20 20 21 21 21 23 24 26 29 32 34 35 36 37 39 40 41 43
25 25 25 26 26 26 26 26 26 26 26 25 25 23 23 23 22 21 21 22 23 23 22 24 24 25 26 26 25 24 23 22 24 27 29 29 29 28 24 21 18 15 12 10 11 12 13 14 11 8 7 11 12 12 13 15 15 15 17 16 15 15 17 17 16 16 15 16 16 16 16 18 18 17 17 17 17 18 18 18 18 18 19 19 19 19 19 19 20 21 21 22 23 26 31 33 35 36 38 39 40 41 42
24 25 25 25 26 26 26 26 26 26 27 27 25 23 23 22 21 21 20 21 23 24 22 24 24 25 26 27 26 25 22 21 21 23 26 27 27 26 25 25 24 21 20 18 17 17 16 14 12 10 8 9 10 13 15 14 13 13 14 14 14 15 16 15 14 14 15 15 16 16 16 17 17 16 16 17 17 18 18 18 18 19 20 20 20 19 18 20 22 23 22 24 25 28 32 34 35 36 38 39 40 41 42
24 24 25 25 25 26 26 26 26 27 27 27 25 23 22 21 21 21 20 21 23 25 23 23 24 25 26 26 26 25 22 21 22 22 23 23 24 24 25 24 25 26 28 25 23 20 18 15 13 12 11 9 8 10 13 12 12 11 12 13 14 15 15 14 13 13 14 15 15 15 16 16 16 17 17 17 18 18 18 18 19 20 20 20 19 19 20 23 25 25 27 29 30 31 32 34 35 36 38 39 40 41 41
27 25 24 24 25 25 26 26 27 27 28 27 25 23 21 21 21 22 21 20 23 25 23 22 23 24 25 25 25 24 22 22 22 23 23 21 21 23 25 24 21 20 22 22 23 22 19 17 16 15 14 12 10 8 9 10 11 11 11 12 13 14 14 13 14 15 15 15 15 15 15 16 16 17 17 17 18 18 18 20 20 20 20 20 19 19 20 20 21 23 25 28 29 31 32 34 35 36 38 39 40 40 40
30 29 25 24 25 25 25 26 27 28 29 27 25 23 22 22 22 21 21 20 20 22 22 22 23 23 24 25 25 25 24 23 23 23 23 20 20 21 25 23 21 20 22 21 20 20 19 19 18 17 16 16 13 10 7 8 9 10 11 12 13 13 14 14 15 16 15 16 16 16 15 16 16 16 16 17 18 19 19 19 20 20 20 19 19 18 19 19 19 20 20 23 27 30 33 34 35 36 37 38 39 39 40